Back to catalog

STARLINK-2722

AliveCommunicationsVLEO
NORAD 48472·PAYLOAD·🇺🇸 United States

Launched May 9, 2021 from Cape Canaveral Space Force Station

Loading…

Next Passes (next 24 hours)

TLE

FreshSource: CelesTrak SupGP

Epoch: Sep 14, 2026, 12:48 UTC

1 48472C 21040AW  26257.53381944 -.00002161  00000+0 -11189-3 0  2572
2 48472  53.0590  56.3706 0001090 103.0355 339.8728 15.15696633    19

Track STARLINK-2722 in real time with AllMySat

Download on the App Store